Location: Peebles
(55.6412°N, 3.1714°W)
Time: 11:53:18
(UTC+01:00)

KEPLER-1 (CASE) - Pass Details

Date: 30 June 2022
Orbit: 435 x 454 km, 97.4° (Epoch: 16 August)

Event Time Altitude Azimuth Distance (km) Brightness Sun altitude
Exits shadow 00:03:19 11° 192° (SSW) 1,497 ? -9.7°
Maximum altitude 00:06:18 38° 262° (W) 693 ? -9.8°
Drops below altitude 10° 00:09:30 10° 332° (NNW) 1,582 ? -9.9°
Sets 00:11:39 0° 341° (NNW) 2,465 ? -10.0°
